NIMBUS 2 DEB, 27406

Orbit data source: Space-Track

NIMBUS 2 DEB, 27406 is space debris in SSO originally from a launch on Sun, 15 May 1966 UTC launched from the Air Force Western Test Range (AFWTR). Debris objects in space refer to the collection of defunct objects orbiting the Earth. Examples of debris include non-operational satellites, rocket bodies, and fragments generated from explosions, collisions, or faulty payload assembly.

Loading next visibility...
Identifier
27406, 1966-040AL
Orbit
SSO
Country
Flag of USUS
Related business
Manufacturer
Unknown
Mission
Spacecraft
Bus & Motor
Unknown
Mass
Unknown
Launch date (UTC)
1966-05-15 (60 years ago)
Launch vehicle
Unknown
Launch site
Air Force Western Test Range (AFWTR)
Object type
Payload
Rocket body
Debris
Shape & HBR
Unknown shape, 0.1 m
Radar Cross Section
Small (<0.1 m²)

Expand to show TLE details & history
Last TLE update: 2 days ago

TLE from 2 days ago
0 NIMBUS 2 DEB
1 27406U 66040AL  26144.60101689  .00003087  00000-0  36066-2 0  9994
2 27406 100.2844 186.0058 0032901 267.3986 244.8911 13.69158175322129
Epoch: 2026-05-24T14:25Z
TLE epoch observation values (Epoch: 2026-05-24T14:25:27.859Z)
Latitude
27.60292°
Longitude
-87.14543°
Altitude
1,016.238 km
Speed
7.341 km/s
True Right ascension
00h 45m 41s
True Declination
27° 28' 01"
Sunlit
Object was in daylight at epoch
Visualization orbit readout
Latitude
Unknown
Longitude
Unknown
Altitude
Unknown
Speed
Unknown
Apparent Right ascension
Unknown
Apparent Declination
Unknown
Sunlit
N/A
Visualization observer readout
Local Sidereal Time
16:14:47
Azimuth
Unknown
Elevation
Unknown
Doppler factor
Unknown
Orbital elements
Apogee altitude
1,024.176 km
Perigee altitude
975.627 km
Semi-major axis
7,378.039 km
Eccentricity
0.00329
Inclination
100.2844°
RAAN
186.0058°
Arg. of periapsis
267.3986°
True anomaly
244.55031°
Mean anomaly
244.8911°
Eccentric anomaly
244.72064°
Mean motion
3.42477 °/min
Orbital period
105.12 mins
BSTAR
0.0036066
Loading maneuver chart data...
Computing Atmospheric mass density...
Loading historical data...
Loading historical data...
Loading historical data...
Loading historical data...
Loading historical data...
Loading historical data...
Loading historical data...

Documentation

Showing up to 5 results
|